Lid_Strength_Index
8 8 7 8 8 8 8 8 11 9 9 8 7 8 8 7 5 5 4 4 4 4 3 3 2 2 3 4 5 5 4 4 3 2 1 2 2 3 3 2 2 2 3 3
9 7 7 8 8 7 8 7 8 8 9 6 6 5 6 6 5 5 5 4 4 3 3 3 2 3 3 4 5 5 4 4 3 2 2 2 3 3 3 1 2 2 3 3
12 8 8 10 8 7 7 7 7 9 9 7 7 6 5 5 4 5 5 4 4 3 3 3 2 2 3 4 4 4 3 4 3 2 3 3 3 3 3 2 2 2 2 2
12 10 15 8 6 6 7 6 6 7 6 6 6 5 4 4 4 4 4 4 3 3 3 2 2 2 4 4 5 3 3 4 4 3 4 4 3 3 2 1 2 2 2 2
13 12 10 8 7 7 7 8 5 6 6 5 5 5 5 4 3 4 3 3 3 2 2 2 2 4 4 5 3 4 4 4 5 4 4 4 4 4 2 2 2 2 2 3
11 14 15 9 7 6 5 10 5 5 6 6 5 8 8 4 3 3 3 3 3 2 2 2 3 4 4 4 4 4 4 4 4 4 3 4 4 3 3 2 3 2 3 2
12 13 11 8 7 6 12 10 5 5 5 5 7 6 5 3 4 3 3 3 2 2 3 3 4 3 5 4 4 3 3 3 3 2 2 3 2 2 2 2 2 3 3 2
11 14 15 6 7 11 7 4 5 5 5 6 5 5 4 4 4 3 3 3 2 3 4 4 4 3 4 4 3 3 3 3 3 3 4 4 2 1 2 2 2 4 5 4
9 9 8 6 6 4 4 5 4 5 4 5 5 5 4 4 4 3 3 2 2 4 4 4 3 3 4 3 3 2 2 2 2 2 3 2 3 2 2 3 4 5 5 5
8 7 6 6 5 5 5 4 3 3 4 4 5 4 4 4 3 3 3 3 3 3 5 5 4 3 3 3 2 2 3 2 2 3 3 2 3 3 3 3 4 5 5 5
8 7 6 5 5 4 4 3 3 3 3 3 4 4 4 4 3 3 2 2 3 4 5 4 3 3 3 3 3 2 3 3 2 4 3 3 2 2 3 5 5 5 5 6
10 6 7 7 5 4 4 4 3 3 3 3 3 3 3 3 3 2 2 3 4 4 3 3 3 3 3 2 3 2 3 4 4 5 4 4 4 4 8 8 8 7 8 8
8 6 5 6 4 3 3 3 3 3 3 3 3 3 3 3 2 3 2 3 3 3 3 3 3 4 3 2 3 2 3 3 5 6 5 5 5 5 5 8 8 9 9 8
5 6 6 4 5 3 3 3 3 2 2 2 2 2 2 3 2 2 3 3 3 3 3 3 4 3 3 3 3 3 3 6 5 6 6 5 5 3 3 4 5 5 8 9
5 5 4 4 3 3 3 3 3 4 3 3 2 2 2 3 3 3 2 3 3 3 3 4 4 3 3 3 3 3 3 4 5 5 5 5 4 4 4 4 4 5 6 7
4 4 4 4 4 4 3 4 4 4 3 3 3 3 2 2 2 3 3 3 3 3 3 3 3 3 3 3 2 3 3 6 8 5 4 4 4 4 4 4 5 6 6 8
5 5 4 5 5 5 4 4 4 4 3 3 3 2 2 2 3 3 3 2 2 2 2 2 2 3 3 2 2 3 4 4 8 5 4 4 5 4 4 5 5 6 7 8
3 3 3 3 4 4 4 3 3 3 3 3 2 2 2 2 3 2 2 2 2 2 1 1 2 2 2 3 4 4 4 5 4 4 4 4 4 3 4 5 6 6 7 7
3 3 3 3 2 3 3 3 3 3 2 2 2 2 2 2 2 2 1 2 2 2 2 1 6 5 2 4 7 6 4 4 4 4 4 6 4 4 4 5 6 7 8 8
3 2 2 2 2 2 3 2 2 2 3 2 2 2 2 2 2 2 1 2 1 1 0 3 3 2 3 4 7 5 3 3 4 4 4 4 4 4 4 8 7 7 7 8
3 4 4 4 2 2 2 2 3 3 2 2 2 3 2 2 2 1 2 3 1 2 2 5 2 3 4 7 6 4 3 4 4 4 4 4 3 4 5 6 6 6 7 8
3 4 4 4 3 3 2 1 2 2 3 3 3 2 2 2 2 1 1 2 2 10 4 3 4 10 7 11 4 4 3 4 4 4 4 4 4 4 5 6 6 6 7 7
2 2 2 3 2 2 1 1 2 2 3 3 2 2 2 2 2 2 3 1 2 6 3 5 11 11 12 5 3 4 4 4 5 5 4 4 3 4 5 6 5 6 7 7
3 3 2 2 2 2 2 2 2 1 2 2 2 1 2 2 2 2 3 8 10 7 6 7 8 11 13 5 4 3 4 5 5 4 4 7 4 4 5 5 6 6 7 7
3 3 2 2 3 3 2 2 2 2 2 2 2 2 1 1 1 1 2 5 11 6 5 12 11 11 5 4 4 4 5 5 5 4 4 4 4 4 5 6 6 6 7 7
3 3 3 2 2 2 2 2 3 2 2 3 2 1 1 1 1 2 3 6 4 7 5 5 3 3 4 4 4 5 4 5 5 4 5 4 5 5 6 6 6 7 7 7
2 5 2 3 2 2 2 3 3 3 2 2 2 1 1 1 2 4 7 4 4 4 4 4 3 6 4 4 4 4 4 4 8 5 5 5 5 5 6 7 7 6 7 7